Time,TemperatureF,DewpointF,PressureIn,WindDirection,WindDirectionDegrees,WindSpeedMPH,WindSpeedGustMPH,Humidity,HourlyPrecipIn,Conditions,Clouds,dailyrainin,SoftwareType,DateUTC
2013-01-29 00:00:00,46.2,45.7,30.39,SE,138,1.0,1.0,98,0.00,,,0.00,Wunderground v.1.15,2013-01-29 08:00:00,
2013-01-29 00:05:00,46.2,45.9,30.40,SE,146,1.0,1.0,99,0.00,,,0.00,Wunderground v.1.15,2013-01-29 08:05:00,
2013-01-29 00:10:00,46.2,45.9,30.40,SW,229,2.0,2.0,99,0.00,,,0.00,Wunderground v.1.15,2013-01-29 08:10:00,
2013-01-29 00:15:00,46.1,45.6,30.40,ESE,110,2.0,2.0,98,0.00,,,0.00,Wunderground v.1.15,2013-01-29 08:15:00,
2013-01-29 00:20:00,46.0,45.5,30.40,SE,130,1.0,1.0,98,0.00,,,0.00,Wunderground v.1.15,2013-01-29 08:20:00,
2013-01-29 00:25:00,46.0,45.5,30.40,SE,130,0.0,1.0,98,0.00,,,0.00,Wunderground v.1.15,2013-01-29 08:25:00,
2013-01-29 00:35:00,46.1,45.6,30.41,SE,130,1.0,1.0,98,0.00,,,0.00,Wunderground v.1.15,2013-01-29 08:35:00,
2013-01-29 00:40:00,46.1,45.6,30.41,NNW,344,1.0,1.0,98,0.00,,,0.00,Wunderground v.1.15,2013-01-29 08:40:00,
2013-01-29 00:45:00,46.1,45.8,30.40,SE,145,0.0,1.0,99,0.00,,,0.00,Wunderground v.1.15,2013-01-29 08:45:00,
2013-01-29 00:50:00,46.1,45.6,30.40,SSE,148,1.0,3.0,98,0.00,,,0.00,Wunderground v.1.15,2013-01-29 08:50:00,
2013-01-29 00:55:00,46.3,45.8,30.40,SSE,152,1.0,3.0,98,0.00,,,0.00,Wunderground v.1.15,2013-01-29 08:55:00,
2013-01-29 01:05:00,46.3,45.5,30.41,WSW,253,2.0,2.0,97,0.00,,,0.00,Wunderground v.1.15,2013-01-29 09:05:00,
2013-01-29 01:10:00,46.3,45.5,30.41,SE,128,1.0,1.0,97,0.00,,,0.00,Wunderground v.1.15,2013-01-29 09:10:00,
2013-01-29 01:15:00,46.4,45.6,30.41,SE,128,1.0,2.0,97,0.00,,,0.00,Wunderground v.1.15,2013-01-29 09:15:00,
2013-01-29 01:20:00,46.4,45.6,30.41,SE,134,1.0,1.0,97,0.00,,,0.00,Wunderground v.1.15,2013-01-29 09:20:00,
2013-01-29 01:25:00,46.4,45.3,30.41,SE,132,1.0,1.0,96,0.00,,,0.00,Wunderground v.1.15,2013-01-29 09:25:00,
2013-01-29 01:30:00,46.4,45.3,30.41,ESE,110,1.0,1.0,96,0.00,,,0.00,Wunderground v.1.15,2013-01-29 09:30:00,
2013-01-29 01:40:00,46.5,45.4,30.42,SE,145,0.0,1.0,96,0.00,,,0.00,Wunderground v.1.15,2013-01-29 09:40:00,
2013-01-29 01:45:00,46.5,45.4,30.41,SE,130,1.0,1.0,96,0.00,,,0.00,Wunderground v.1.15,2013-01-29 09:45:00,
2013-01-29 01:50:00,46.5,45.4,30.41,SE,143,2.0,2.0,96,0.00,,,0.00,Wunderground v.1.15,2013-01-29 09:50:00,
2013-01-29 01:55:00,46.4,45.6,30.41,SW,216,2.0,2.0,97,0.00,,,0.00,Wunderground v.1.15,2013-01-29 09:55:00,
2013-01-29 02:00:00,46.3,45.5,30.42,ESE,109,1.0,1.0,97,0.00,,,0.00,Wunderground v.1.15,2013-01-29 10:00:00,
2013-01-29 02:05:00,46.1,45.0,30.42,WSW,247,1.0,1.0,96,0.00,,,0.00,Wunderground v.1.15,2013-01-29 10:05:00,
2013-01-29 02:15:00,46.3,45.2,30.42,SE,138,1.0,1.0,96,0.00,,,0.00,Wunderground v.1.15,2013-01-29 10:15:00,
2013-01-29 02:20:00,46.4,45.3,30.42,SE,143,1.0,1.0,96,0.00,,,0.00,Wunderground v.1.15,2013-01-29 10:20:00,
2013-01-29 02:25:00,46.4,45.3,30.42,SSE,155,1.0,2.0,96,0.00,,,0.00,Wunderground v.1.15,2013-01-29 10:25:00,
2013-01-29 02:30:00,46.4,44.8,30.42,SE,140,1.0,1.0,94,0.00,,,0.00,Wunderground v.1.15,2013-01-29 10:30:00,
2013-01-29 02:35:00,46.6,45.0,30.42,SSE,150,1.0,2.0,94,0.00,,,0.00,Wunderground v.1.15,2013-01-29 10:35:00,
2013-01-29 02:40:00,46.6,45.2,30.42,SE,127,1.0,1.0,95,0.00,,,0.00,Wunderground v.1.15,2013-01-29 10:40:00,
2013-01-29 02:50:00,46.4,45.3,30.43,East,95,1.0,1.0,96,0.00,,,0.00,Wunderground v.1.15,2013-01-29 10:50:00,
2013-01-29 02:55:00,46.5,45.4,30.43,SW,224,1.0,1.0,96,0.00,,,0.00,Wunderground v.1.15,2013-01-29 10:55:00,
2013-01-29 03:00:00,46.5,45.4,30.43,ESE,110,0.0,0.0,96,0.00,,,0.00,Wunderground v.1.15,2013-01-29 11:00:00,
2013-01-29 03:05:00,46.6,45.5,30.43,SW,225,0.0,2.0,96,0.00,,,0.00,Wunderground v.1.15,2013-01-29 11:05:00,
2013-01-29 03:10:00,46.6,45.2,30.42,SSE,167,1.0,1.0,95,0.00,,,0.00,Wunderground v.1.15,2013-01-29 11:10:00,
2013-01-29 03:20:00,46.7,45.1,30.43,WSW,252,1.0,1.0,94,0.00,,,0.00,Wunderground v.1.15,2013-01-29 11:20:00,
2013-01-29 03:25:00,46.7,45.1,30.43,SE,136,1.0,1.0,94,0.00,,,0.00,Wunderground v.1.15,2013-01-29 11:25:00,
2013-01-29 03:30:00,46.7,45.6,30.43,WSW,253,1.0,1.0,96,0.00,,,0.00,Wunderground v.1.15,2013-01-29 11:30:00,
2013-01-29 03:35:00,46.6,45.5,30.43,ESE,108,1.0,3.0,96,0.00,,,0.00,Wunderground v.1.15,2013-01-29 11:35:00,
2013-01-29 03:45:00,46.2,45.4,30.43,West,262,1.0,1.0,97,0.00,,,0.01,Wunderground v.1.15,2013-01-29 11:45:00,
2013-01-29 03:50:00,46.1,45.3,30.43,ESE,117,1.0,1.0,97,0.00,,,0.01,Wunderground v.1.15,2013-01-29 11:50:00,
2013-01-29 03:55:00,46.1,45.6,30.43,SE,145,1.0,2.0,98,0.00,,,0.01,Wunderground v.1.15,2013-01-29 11:55:00,
2013-01-29 04:00:00,46.0,45.5,30.43,ESE,120,1.0,1.0,98,0.00,,,0.01,Wunderground v.1.15,2013-01-29 12:00:00,
2013-01-29 04:05:00,45.9,45.4,30.43,SE,141,0.0,1.0,98,0.00,,,0.01,Wunderground v.1.15,2013-01-29 12:05:00,
2013-01-29 04:15:00,45.9,45.6,30.43,SSW,192,0.0,1.0,99,0.00,,,0.01,Wunderground v.1.15,2013-01-29 12:15:00,
2013-01-29 04:20:00,45.9,45.4,30.43,SSE,167,1.0,1.0,98,0.00,,,0.01,Wunderground v.1.15,2013-01-29 12:20:00,
2013-01-29 04:25:00,45.9,45.6,30.43,SE,133,1.0,1.0,99,0.00,,,0.01,Wunderground v.1.15,2013-01-29 12:25:00,
2013-01-29 04:30:00,46.0,45.7,30.44,SSE,148,1.0,2.0,99,0.00,,,0.01,Wunderground v.1.15,2013-01-29 12:30:00,
2013-01-29 04:35:00,45.9,45.6,30.44,East,100,2.0,2.0,99,0.00,,,0.01,Wunderground v.1.15,2013-01-29 12:35:00,
2013-01-29 04:45:00,45.7,45.4,30.44,SSW,212,0.0,1.0,99,0.00,,,0.01,Wunderground v.1.15,2013-01-29 12:45:00,
2013-01-29 04:50:00,45.7,45.4,30.44,SE,134,1.0,1.0,99,0.00,,,0.01,Wunderground v.1.15,2013-01-29 12:50:00,
2013-01-29 04:55:00,45.7,45.4,30.44,SE,124,1.0,2.0,99,0.00,,,0.01,Wunderground v.1.15,2013-01-29 12:55:00,
2013-01-29 05:00:00,45.7,45.4,30.44,ESE,106,0.0,0.0,99,0.00,,,0.01,Wunderground v.1.15,2013-01-29 13:00:00,
2013-01-29 05:05:00,45.7,45.4,30.44,ESE,106,0.0,0.0,99,0.00,,,0.01,Wunderground v.1.15,2013-01-29 13:05:00,
2013-01-29 05:15:00,45.6,45.3,30.44,ESE,109,0.0,1.0,99,0.00,,,0.01,Wunderground v.1.15,2013-01-29 13:15:00,
2013-01-29 05:20:00,45.6,45.3,30.45,ESE,109,0.0,0.0,99,0.00,,,0.01,Wunderground v.1.15,2013-01-29 13:20:00,
2013-01-29 05:25:00,45.6,45.3,30.45,ESE,110,0.0,0.0,99,0.00,,,0.01,Wunderground v.1.15,2013-01-29 13:25:00,
2013-01-29 05:30:00,45.6,45.3,30.45,SE,133,0.0,1.0,99,0.00,,,0.01,Wunderground v.1.15,2013-01-29 13:30:00,
2013-01-29 05:35:00,45.6,45.3,30.45,SE,129,0.0,1.0,99,0.00,,,0.01,Wunderground v.1.15,2013-01-29 13:35:00,
2013-01-29 05:40:00,45.6,45.6,30.46,ESE,121,0.0,0.0,100,0.00,,,0.01,Wunderground v.1.15,2013-01-29 13:40:00,
2013-01-29 05:45:00,45.5,45.2,30.46,ESE,121,0.0,0.0,99,0.00,,,0.01,Wunderground v.1.15,2013-01-29 13:45:00,
2013-01-29 05:55:00,45.5,45.2,30.46,ESE,103,0.0,1.0,99,0.00,,,0.01,Wunderground v.1.15,2013-01-29 13:55:00,
2013-01-29 06:00:00,45.5,45.5,30.46,SE,131,0.0,0.0,100,0.00,,,0.02,Wunderground v.1.15,2013-01-29 14:00:00,
2013-01-29 06:05:00,45.6,45.6,30.46,SE,131,0.0,0.0,100,0.00,,,0.02,Wunderground v.1.15,2013-01-29 14:05:00,
2013-01-29 06:10:00,45.6,45.6,30.47,SE,131,0.0,0.0,100,0.00,,,0.02,Wunderground v.1.15,2013-01-29 14:10:00,
2013-01-29 06:15:00,45.6,45.6,30.47,SE,131,0.0,0.0,100,0.00,,,0.02,Wunderground v.1.15,2013-01-29 14:15:00,
2013-01-29 06:25:00,45.6,45.6,30.47,ESE,106,0.0,0.0,100,0.00,,,0.03,Wunderground v.1.15,2013-01-29 14:25:00,
2013-01-29 06:30:00,45.6,45.6,30.47,SE,136,0.0,0.0,100,0.00,,,0.03,Wunderground v.1.15,2013-01-29 14:30:00,
2013-01-29 06:35:00,45.6,45.6,30.47,SE,136,0.0,0.0,100,0.00,,,0.03,Wunderground v.1.15,2013-01-29 14:35:00,
2013-01-29 06:40:00,45.6,45.6,30.47,SE,135,0.0,0.0,100,0.00,,,0.03,Wunderground v.1.15,2013-01-29 14:40:00,
2013-01-29 06:45:00,45.6,45.6,30.47,SE,136,0.0,0.0,100,0.00,,,0.04,Wunderground v.1.15,2013-01-29 14:45:00,
2013-01-29 06:55:00,45.6,45.6,30.48,ESE,113,0.0,0.0,100,0.00,,,0.04,Wunderground v.1.15,2013-01-29 14:55:00,
2013-01-29 07:00:00,45.6,45.6,30.48,ESE,113,0.0,0.0,100,0.04,,,0.05,Wunderground v.1.15,2013-01-29 15:00:00,
2013-01-29 07:05:00,45.6,45.6,30.48,ESE,113,0.0,0.0,100,0.04,,,0.05,Wunderground v.1.15,2013-01-29 15:05:00,
2013-01-29 07:10:00,45.5,45.5,30.49,ESE,113,0.0,0.0,100,0.05,,,0.06,Wunderground v.1.15,2013-01-29 15:10:00,
2013-01-29 07:15:00,45.5,45.5,30.49,ESE,113,0.0,0.0,100,0.05,,,0.06,Wunderground v.1.15,2013-01-29 15:15:00,
2013-01-29 07:20:00,45.5,45.5,30.50,SE,131,0.0,0.0,100,0.06,,,0.07,Wunderground v.1.15,2013-01-29 15:20:00,
2013-01-29 07:30:00,45.4,45.4,30.50,SE,131,0.0,0.0,100,0.06,,,0.07,Wunderground v.1.15,2013-01-29 15:30:00,
2013-01-29 07:35:00,45.3,45.3,30.50,SE,131,0.0,0.0,100,0.06,,,0.08,Wunderground v.1.15,2013-01-29 15:35:00,
2013-01-29 07:40:00,45.3,45.3,30.50,ESE,119,0.0,1.0,100,0.06,,,0.08,Wunderground v.1.15,2013-01-29 15:40:00,
2013-01-29 07:45:00,45.4,45.4,30.50,SE,132,0.0,3.0,100,0.05,,,0.09,Wunderground v.1.15,2013-01-29 15:45:00,
2013-01-29 07:50:00,45.4,45.4,30.50,ESE,103,0.0,0.0,100,0.05,,,0.09,Wunderground v.1.15,2013-01-29 15:50:00,
2013-01-29 07:55:00,45.5,45.5,30.49,SE,136,0.0,0.0,100,0.04,,,0.09,Wunderground v.1.15,2013-01-29 15:55:00,
2013-01-29 08:05:00,45.5,45.5,30.50,SE,136,0.0,0.0,100,0.00,,,0.10,Wunderground v.1.15,2013-01-29 16:05:00,
2013-01-29 08:10:00,45.6,45.6,30.50,SE,136,0.0,0.0,100,0.00,,,0.10,Wunderground v.1.15,2013-01-29 16:10:00,
2013-01-29 08:15:00,45.6,45.6,30.50,SE,136,0.0,0.0,100,0.00,,,0.10,Wunderground v.1.15,2013-01-29 16:15:00,
2013-01-29 08:20:00,45.6,45.6,30.50,SE,136,0.0,0.0,100,0.00,,,0.10,Wunderground v.1.15,2013-01-29 16:20:00,
2013-01-29 08:25:00,45.6,45.6,30.50,SE,136,0.0,0.0,100,0.00,,,0.11,Wunderground v.1.15,2013-01-29 16:25:00,
2013-01-29 08:35:00,45.7,45.7,30.50,SE,136,0.0,0.0,100,0.00,,,0.11,Wunderground v.1.15,2013-01-29 16:35:00,
2013-01-29 08:40:00,45.7,45.7,30.50,SE,136,0.0,0.0,100,0.00,,,0.11,Wunderground v.1.15,2013-01-29 16:40:00,
2013-01-29 08:45:00,45.7,45.7,30.50,SE,127,0.0,1.0,100,0.00,,,0.12,Wunderground v.1.15,2013-01-29 16:45:00,
2013-01-29 08:50:00,45.7,45.7,30.50,SSE,150,0.0,0.0,100,0.00,,,0.12,Wunderground v.1.15,2013-01-29 16:50:00,
2013-01-29 08:55:00,45.8,45.8,30.51,SSE,150,0.0,0.0,100,0.00,,,0.12,Wunderground v.1.15,2013-01-29 16:55:00,
2013-01-29 09:00:00,45.9,45.9,30.51,SSE,150,0.0,0.0,100,0.00,,,0.12,Wunderground v.1.15,2013-01-29 17:00:00,
2013-01-29 09:10:00,46.0,46.0,30.51,SE,143,0.0,0.0,100,0.00,,,0.12,Wunderground v.1.15,2013-01-29 17:10:00,
2013-01-29 09:15:00,46.0,46.0,30.51,SE,141,0.0,0.0,100,0.00,,,0.12,Wunderground v.1.15,2013-01-29 17:15:00,
2013-01-29 09:20:00,46.1,46.1,30.51,SE,141,0.0,0.0,100,0.00,,,0.13,Wunderground v.1.15,2013-01-29 17:20:00,
2013-01-29 09:25:00,46.1,46.1,30.51,SE,141,0.0,0.0,100,0.00,,,0.13,Wunderground v.1.15,2013-01-29 17:25:00,
2013-01-29 09:30:00,46.2,46.2,30.51,SE,141,0.0,0.0,100,0.05,,,0.14,Wunderground v.1.15,2013-01-29 17:30:00,
2013-01-29 09:40:00,46.2,46.2,30.52,SE,143,0.0,0.0,100,0.05,,,0.14,Wunderground v.1.15,2013-01-29 17:40:00,
2013-01-29 09:45:00,46.3,46.3,30.52,SE,146,0.0,0.0,100,0.04,,,0.14,Wunderground v.1.15,2013-01-29 17:45:00,
2013-01-29 09:50:00,46.3,46.3,30.52,SE,143,0.0,0.0,100,0.00,,,0.14,Wunderground v.1.15,2013-01-29 17:50:00,
2013-01-29 10:00:00,46.4,46.4,30.52,SE,125,0.0,0.0,100,0.00,,,0.15,Wunderground v.1.15,2013-01-29 18:00:00,
2013-01-29 10:05:00,46.4,46.4,30.53,ESE,113,0.0,1.0,100,0.00,,,0.15,Wunderground v.1.15,2013-01-29 18:05:00,
2013-01-29 10:10:00,46.4,46.4,30.53,SE,143,0.0,2.0,100,0.00,,,0.15,Wunderground v.1.15,2013-01-29 18:10:00,
2013-01-29 10:15:00,46.4,46.4,30.53,ESE,115,0.0,2.0,100,0.00,,,0.15,Wunderground v.1.15,2013-01-29 18:15:00,
2013-01-29 10:20:00,46.4,46.4,30.53,SE,133,0.0,1.0,100,0.00,,,0.15,Wunderground v.1.15,2013-01-29 18:20:00,
2013-01-29 10:30:00,46.4,46.4,30.54,SE,132,0.0,0.0,100,0.00,,,0.15,Wunderground v.1.15,2013-01-29 18:30:00,
2013-01-29 10:35:00,46.5,46.5,30.54,SE,143,0.0,0.0,100,0.00,,,0.15,Wunderground v.1.15,2013-01-29 18:35:00,
2013-01-29 10:40:00,46.6,46.6,30.54,SSE,166,0.0,0.0,100,0.00,,,0.15,Wunderground v.1.15,2013-01-29 18:40:00,
2013-01-29 10:45:00,46.5,46.5,30.54,SSE,158,0.0,2.0,100,0.00,,,0.16,Wunderground v.1.15,2013-01-29 18:45:00,
2013-01-29 10:50:00,46.6,46.6,30.54,SE,136,0.0,0.0,100,0.00,,,0.16,Wunderground v.1.15,2013-01-29 18:50:00,
2013-01-29 10:55:00,46.8,46.8,30.54,SE,136,0.0,0.0,100,0.00,,,0.16,Wunderground v.1.15,2013-01-29 18:55:00,
2013-01-29 11:05:00,47.3,47.3,30.54,SE,127,0.0,1.0,100,0.00,,,0.16,Wunderground v.1.15,2013-01-29 19:05:00,
2013-01-29 11:10:00,47.3,47.0,30.54,SSE,154,0.0,0.0,99,0.00,,,0.16,Wunderground v.1.15,2013-01-29 19:10:00,
2013-01-29 11:15:00,47.4,47.1,30.54,SE,131,0.0,0.0,99,0.00,,,0.16,Wunderground v.1.15,2013-01-29 19:15:00,
2013-01-29 11:20:00,47.5,47.2,30.54,ESE,122,0.0,0.0,99,0.00,,,0.16,Wunderground v.1.15,2013-01-29 19:20:00,
2013-01-29 11:25:00,47.5,47.0,30.54,SE,143,0.0,1.0,98,0.00,,,0.16,Wunderground v.1.15,2013-01-29 19:25:00,
2013-01-29 11:30:00,47.4,46.9,30.54,ESE,115,0.0,0.0,98,0.00,,,0.16,Wunderground v.1.15,2013-01-29 19:30:00,
2013-01-29 11:40:00,47.3,46.8,30.54,ESE,104,0.0,2.0,98,0.00,,,0.16,Wunderground v.1.15,2013-01-29 19:40:00,
2013-01-29 11:45:00,47.2,46.7,30.55,SE,135,1.0,2.0,98,0.00,,,0.16,Wunderground v.1.15,2013-01-29 19:45:00,
2013-01-29 11:50:00,47.2,46.7,30.54,ESE,118,1.0,1.0,98,0.00,,,0.16,Wunderground v.1.15,2013-01-29 19:50:00,
2013-01-29 11:55:00,47.2,46.7,30.54,SSE,155,1.0,1.0,98,0.00,,,0.16,Wunderground v.1.15,2013-01-29 19:55:00,
2013-01-29 12:05:00,47.5,47.0,30.54,South,178,0.0,1.0,98,0.00,,,0.16,Wunderground v.1.15,2013-01-29 20:05:00,
2013-01-29 12:10:00,47.6,47.1,30.55,South,179,0.0,0.0,98,0.00,,,0.16,Wunderground v.1.15,2013-01-29 20:10:00,
2013-01-29 12:15:00,47.7,46.9,30.54,SE,139,0.0,0.0,97,0.00,,,0.16,Wunderground v.1.15,2013-01-29 20:15:00,
2013-01-29 12:20:00,47.6,46.8,30.54,SE,139,0.0,0.0,97,0.00,,,0.16,Wunderground v.1.15,2013-01-29 20:20:00,
2013-01-29 12:25:00,47.5,46.7,30.54,SE,135,0.0,0.0,97,0.00,,,0.16,Wunderground v.1.15,2013-01-29 20:25:00,
2013-01-29 12:35:00,47.6,47.1,30.55,SE,135,0.0,0.0,98,0.00,,,0.16,Wunderground v.1.15,2013-01-29 20:35:00,
2013-01-29 12:40:00,47.7,47.2,30.55,SE,135,0.0,0.0,98,0.00,,,0.16,Wunderground v.1.15,2013-01-29 20:40:00,
2013-01-29 12:45:00,47.8,47.0,30.55,SE,134,0.0,1.0,97,0.00,,,0.16,Wunderground v.1.15,2013-01-29 20:45:00,
2013-01-29 12:50:00,47.9,47.1,30.54,SE,127,0.0,0.0,97,0.00,,,0.16,Wunderground v.1.15,2013-01-29 20:50:00,
2013-01-29 12:55:00,48.1,47.6,30.54,SE,136,0.0,0.0,98,0.00,,,0.16,Wunderground v.1.15,2013-01-29 20:55:00,
2013-01-29 13:00:00,48.0,47.2,30.54,SE,124,0.0,0.0,97,0.00,,,0.16,Wunderground v.1.15,2013-01-29 21:00:00,
2013-01-29 13:10:00,47.8,47.0,30.54,ESE,117,0.0,0.0,97,0.00,,,0.16,Wunderground v.1.15,2013-01-29 21:10:00,
2013-01-29 13:15:00,47.8,47.0,30.54,SE,129,0.0,1.0,97,0.00,,,0.16,Wunderground v.1.15,2013-01-29 21:15:00,
2013-01-29 13:20:00,47.9,47.4,30.54,SE,125,0.0,1.0,98,0.00,,,0.16,Wunderground v.1.15,2013-01-29 21:20:00,
2013-01-29 13:25:00,47.8,47.0,30.54,SSE,151,0.0,1.0,97,0.00,,,0.16,Wunderground v.1.15,2013-01-29 21:25:00,
2013-01-29 13:35:00,47.8,47.0,30.54,SE,128,0.0,0.0,97,0.00,,,0.16,Wunderground v.1.15,2013-01-29 21:35:00,
2013-01-29 13:40:00,47.8,47.0,30.54,SSW,203,0.0,0.0,97,0.00,,,0.16,Wunderground v.1.15,2013-01-29 21:40:00,
2013-01-29 13:45:00,47.8,47.0,30.54,ESE,119,0.0,0.0,97,0.00,,,0.16,Wunderground v.1.15,2013-01-29 21:45:00,
2013-01-29 13:50:00,47.7,46.9,30.54,SE,124,0.0,1.0,97,0.00,,,0.16,Wunderground v.1.15,2013-01-29 21:50:00,
2013-01-29 14:00:00,47.8,46.7,30.54,SE,144,0.0,0.0,96,0.00,,,0.16,Wunderground v.1.15,2013-01-29 22:00:00,
2013-01-29 14:05:00,47.6,46.8,30.54,SE,138,0.0,0.0,97,0.00,,,0.16,Wunderground v.1.15,2013-01-29 22:05:00,
2013-01-29 14:10:00,47.4,46.6,30.54,SE,137,0.0,0.0,97,0.00,,,0.16,Wunderground v.1.15,2013-01-29 22:10:00,
2013-01-29 14:15:00,47.5,46.7,30.54,SE,136,0.0,0.0,97,0.00,,,0.16,Wunderground v.1.15,2013-01-29 22:15:00,
2013-01-29 14:20:00,47.6,47.1,30.54,SE,128,0.0,0.0,98,0.00,,,0.16,Wunderground v.1.15,2013-01-29 22:20:00,
2013-01-29 14:25:00,47.8,47.3,30.54,SE,131,0.0,1.0,98,0.00,,,0.16,Wunderground v.1.15,2013-01-29 22:25:00,
2013-01-29 14:35:00,47.5,46.7,30.54,SE,141,1.0,1.0,97,0.00,,,0.16,Wunderground v.1.15,2013-01-29 22:35:00,
2013-01-29 14:40:00,47.3,46.5,30.54,SE,127,0.0,1.0,97,0.00,,,0.16,Wunderground v.1.15,2013-01-29 22:40:00,
2013-01-29 14:45:00,47.2,46.4,30.54,SE,132,0.0,1.0,97,0.00,,,0.16,Wunderground v.1.15,2013-01-29 22:45:00,
2013-01-29 14:50:00,47.3,46.8,30.54,SE,131,0.0,0.0,98,0.00,,,0.16,Wunderground v.1.15,2013-01-29 22:50:00,
2013-01-29 14:55:00,47.4,47.1,30.54,SE,134,0.0,0.0,99,0.00,,,0.16,Wunderground v.1.15,2013-01-29 22:55:00,
2013-01-29 15:00:00,47.4,46.9,30.54,SE,136,0.0,0.0,98,0.00,,,0.16,Wunderground v.1.15,2013-01-29 23:00:00,
2013-01-29 15:10:00,47.6,47.3,30.54,SE,129,0.0,0.0,99,0.00,,,0.16,Wunderground v.1.15,2013-01-29 23:10:00,
2013-01-29 15:15:00,47.6,47.1,30.54,SE,130,0.0,0.0,98,0.00,,,0.16,Wunderground v.1.15,2013-01-29 23:15:00,
2013-01-29 15:20:00,47.6,47.1,30.54,SE,129,0.0,1.0,98,0.00,,,0.16,Wunderground v.1.15,2013-01-29 23:20:00,
2013-01-29 15:25:00,47.6,47.1,30.54,SE,129,0.0,1.0,98,0.00,,,0.16,Wunderground v.1.15,2013-01-29 23:25:00,
2013-01-29 15:30:00,47.5,46.7,30.54,SE,139,0.0,0.0,97,0.00,,,0.16,Wunderground v.1.15,2013-01-29 23:30:00,
2013-01-29 15:35:00,47.5,46.7,30.55,SE,139,0.0,1.0,97,0.00,,,0.16,Wunderground v.1.15,2013-01-29 23:35:00,
2013-01-29 15:45:00,47.4,46.6,30.55,SE,139,0.0,0.0,97,0.00,,,0.16,Wunderground v.1.15,2013-01-29 23:45:00,
2013-01-29 15:50:00,47.3,46.5,30.54,SE,139,0.0,0.0,97,0.00,,,0.16,Wunderground v.1.15,2013-01-29 23:50:00,
2013-01-29 15:55:00,47.2,46.4,30.54,SE,139,0.0,0.0,97,0.00,,,0.16,Wunderground v.1.15,2013-01-29 23:55:00,
2013-01-29 16:00:00,47.1,46.3,30.54,SE,139,0.0,0.0,97,0.00,,,0.16,Wunderground v.1.15,2013-01-30 00:00:00,
2013-01-29 16:05:00,47.1,46.6,30.55,SE,139,0.0,0.0,98,0.00,,,0.16,Wunderground v.1.15,2013-01-30 00:05:00,
2013-01-29 16:15:00,47.1,46.6,30.55,SE,139,0.0,0.0,98,0.00,,,0.16,Wunderground v.1.15,2013-01-30 00:15:00,
2013-01-29 16:20:00,47.1,46.6,30.55,SE,139,0.0,0.0,98,0.00,,,0.16,Wunderground v.1.15,2013-01-30 00:20:00,
2013-01-29 16:25:00,47.0,46.5,30.55,SE,139,0.0,0.0,98,0.00,,,0.16,Wunderground v.1.15,2013-01-30 00:25:00,
2013-01-29 16:30:00,47.0,46.5,30.55,SE,139,0.0,0.0,98,0.00,,,0.16,Wunderground v.1.15,2013-01-30 00:30:00,
2013-01-29 16:40:00,46.9,46.6,30.56,SE,139,0.0,0.0,99,0.00,,,0.16,Wunderground v.1.15,2013-01-30 00:40:00,
2013-01-29 16:45:00,46.8,46.5,30.56,SE,139,0.0,0.0,99,0.00,,,0.16,Wunderground v.1.15,2013-01-30 00:45:00,
2013-01-29 16:50:00,46.6,46.3,30.56,SE,139,0.0,0.0,99,0.00,,,0.16,Wunderground v.1.15,2013-01-30 00:50:00,
2013-01-29 16:55:00,46.5,46.2,30.56,SE,139,0.0,0.0,99,0.00,,,0.16,Wunderground v.1.15,2013-01-30 00:55:00,
2013-01-29 17:00:00,46.5,46.2,30.56,SE,139,0.0,0.0,99,0.00,,,0.16,Wunderground v.1.15,2013-01-30 01:00:00,
2013-01-29 17:10:00,46.3,46.0,30.56,SE,139,0.0,0.0,99,0.00,,,0.16,Wunderground v.1.15,2013-01-30 01:10:00,
2013-01-29 17:15:00,46.2,45.9,30.56,SE,139,0.0,0.0,99,0.00,,,0.16,Wunderground v.1.15,2013-01-30 01:15:00,
2013-01-29 17:20:00,46.2,45.9,30.56,SE,139,0.0,0.0,99,0.00,,,0.16,Wunderground v.1.15,2013-01-30 01:20:00,
2013-01-29 17:25:00,46.1,45.8,30.55,SE,139,0.0,0.0,99,0.00,,,0.16,Wunderground v.1.15,2013-01-30 01:25:00,
2013-01-29 17:30:00,46.1,45.8,30.56,SE,139,0.0,0.0,99,0.00,,,0.16,Wunderground v.1.15,2013-01-30 01:30:00,
2013-01-29 17:35:00,46.0,46.0,30.55,SE,139,0.0,0.0,100,0.00,,,0.16,Wunderground v.1.15,2013-01-30 01:35:00,
2013-01-29 17:40:00,46.0,46.0,30.55,SE,139,0.0,0.0,100,0.00,,,0.16,Wunderground v.1.15,2013-01-30 01:40:00,
2013-01-29 17:50:00,45.9,45.9,30.55,SE,139,0.0,0.0,100,0.00,,,0.16,Wunderground v.1.15,2013-01-30 01:50:00,
2013-01-29 17:55:00,45.8,45.8,30.56,SE,139,0.0,0.0,100,0.00,,,0.16,Wunderground v.1.15,2013-01-30 01:55:00,
2013-01-29 18:00:00,45.7,45.7,30.56,SE,139,0.0,0.0,100,0.00,,,0.16,Wunderground v.1.15,2013-01-30 02:00:00,
2013-01-29 18:05:00,45.6,45.6,30.56,SE,139,0.0,0.0,100,0.00,,,0.16,Wunderground v.1.15,2013-01-30 02:05:00,
2013-01-29 18:10:00,45.6,45.6,30.56,SE,139,0.0,0.0,100,0.00,,,0.16,Wunderground v.1.15,2013-01-30 02:10:00,
2013-01-29 18:15:00,45.6,45.6,30.56,SE,139,0.0,0.0,100,0.00,,,0.16,Wunderground v.1.15,2013-01-30 02:15:00,
2013-01-29 18:25:00,45.5,45.5,30.56,SE,139,0.0,0.0,100,0.00,,,0.17,Wunderground v.1.15,2013-01-30 02:25:00,
2013-01-29 18:30:00,45.5,45.5,30.56,SE,139,0.0,0.0,100,0.00,,,0.17,Wunderground v.1.15,2013-01-30 02:30:00,
2013-01-29 18:35:00,45.6,45.6,30.56,SE,139,0.0,0.0,100,0.00,,,0.17,Wunderground v.1.15,2013-01-30 02:35:00,
2013-01-29 18:40:00,45.5,45.5,30.56,SE,139,0.0,0.0,100,0.00,,,0.17,Wunderground v.1.15,2013-01-30 02:40:00,
2013-01-29 18:45:00,45.5,45.5,30.56,SE,139,0.0,0.0,100,0.00,,,0.17,Wunderground v.1.15,2013-01-30 02:45:00,
2013-01-29 18:50:00,45.4,45.4,30.56,SE,139,0.0,0.0,100,0.00,,,0.17,Wunderground v.1.15,2013-01-30 02:50:00,
2013-01-29 19:00:00,45.3,45.3,30.56,SE,139,0.0,0.0,100,0.00,,,0.17,Wunderground v.1.15,2013-01-30 03:00:00,
2013-01-29 19:05:00,45.2,45.2,30.56,SE,139,0.0,0.0,100,0.00,,,0.17,Wunderground v.1.15,2013-01-30 03:05:00,
2013-01-29 19:10:00,45.2,45.2,30.56,SE,139,0.0,0.0,100,0.00,,,0.17,Wunderground v.1.15,2013-01-30 03:10:00,
2013-01-29 19:15:00,45.2,45.2,30.57,SE,139,0.0,0.0,100,0.00,,,0.18,Wunderground v.1.15,2013-01-30 03:15:00,
2013-01-29 19:20:00,45.2,45.2,30.57,SE,139,0.0,0.0,100,0.00,,,0.18,Wunderground v.1.15,2013-01-30 03:20:00,
2013-01-29 19:30:00,45.2,45.2,30.57,SE,139,0.0,0.0,100,0.00,,,0.18,Wunderground v.1.15,2013-01-30 03:30:00,
2013-01-29 19:35:00,45.3,45.3,30.57,SE,139,0.0,0.0,100,0.00,,,0.18,Wunderground v.1.15,2013-01-30 03:35:00,
2013-01-29 19:40:00,45.2,45.2,30.56,SE,139,0.0,0.0,100,0.00,,,0.18,Wunderground v.1.15,2013-01-30 03:40:00,
2013-01-29 19:45:00,45.2,45.2,30.57,SE,139,0.0,0.0,100,0.00,,,0.18,Wunderground v.1.15,2013-01-30 03:45:00,
2013-01-29 19:50:00,45.2,45.2,30.57,SE,139,0.0,0.0,100,0.00,,,0.18,Wunderground v.1.15,2013-01-30 03:50:00,
2013-01-29 19:55:00,45.2,45.2,30.56,SE,139,0.0,0.0,100,0.00,,,0.18,Wunderground v.1.15,2013-01-30 03:55:00,
2013-01-29 20:00:00,45.2,45.2,30.56,SE,139,0.0,0.0,100,0.00,,,0.18,Wunderground v.1.15,2013-01-30 04:00:00,
2013-01-29 20:10:00,45.1,45.1,30.57,SE,139,0.0,0.0,100,0.00,,,0.18,Wunderground v.1.15,2013-01-30 04:10:00,
2013-01-29 20:15:00,45.0,45.0,30.57,SE,139,0.0,0.0,100,0.00,,,0.18,Wunderground v.1.15,2013-01-30 04:15:00,
2013-01-29 20:20:00,44.9,44.9,30.56,SE,139,0.0,0.0,100,0.00,,,0.18,Wunderground v.1.15,2013-01-30 04:20:00,
2013-01-29 20:25:00,44.8,44.8,30.56,SE,139,0.0,0.0,100,0.00,,,0.18,Wunderground v.1.15,2013-01-30 04:25:00,
2013-01-29 20:30:00,44.7,44.7,30.56,SE,139,0.0,0.0,100,0.00,,,0.18,Wunderground v.1.15,2013-01-30 04:30:00,
2013-01-29 20:40:00,44.3,44.3,30.56,SE,139,0.0,0.0,100,0.00,,,0.18,Wunderground v.1.15,2013-01-30 04:40:00,
2013-01-29 20:45:00,44.1,44.1,30.56,SE,139,0.0,0.0,100,0.00,,,0.18,Wunderground v.1.15,2013-01-30 04:45:00,
2013-01-29 20:50:00,43.9,43.9,30.56,SE,139,0.0,0.0,100,0.00,,,0.18,Wunderground v.1.15,2013-01-30 04:50:00,
2013-01-29 20:55:00,43.7,43.7,30.56,SE,139,0.0,0.0,100,0.00,,,0.18,Wunderground v.1.15,2013-01-30 04:55:00,
2013-01-29 21:10:00,43.3,43.3,30.56,SE,139,0.0,0.0,100,0.00,,,0.18,Wunderground v.1.15,2013-01-30 05:10:00,
2013-01-29 21:15:00,43.3,43.3,30.56,SE,139,0.0,0.0,100,0.00,,,0.18,Wunderground v.1.15,2013-01-30 05:15:00,
2013-01-29 21:20:00,43.3,43.3,30.56,SE,139,0.0,0.0,100,0.00,,,0.18,Wunderground v.1.15,2013-01-30 05:20:00,
2013-01-29 21:25:00,43.3,43.3,30.56,SE,139,0.0,0.0,100,0.00,,,0.18,Wunderground v.1.15,2013-01-30 05:25:00,
2013-01-29 21:35:00,43.2,43.2,30.56,SE,139,0.0,0.0,100,0.00,,,0.18,Wunderground v.1.15,2013-01-30 05:35:00,
2013-01-29 21:40:00,43.2,43.2,30.56,SE,139,0.0,1.0,100,0.00,,,0.18,Wunderground v.1.15,2013-01-30 05:40:00,
2013-01-29 21:45:00,43.1,43.1,30.56,SE,139,0.0,1.0,100,0.00,,,0.18,Wunderground v.1.15,2013-01-30 05:45:00,
2013-01-29 21:50:00,43.1,43.1,30.56,SE,139,0.0,0.0,100,0.00,,,0.18,Wunderground v.1.15,2013-01-30 05:50:00,
2013-01-29 21:55:00,43.1,43.1,30.56,SE,139,0.0,0.0,100,0.00,,,0.18,Wunderground v.1.15,2013-01-30 05:55:00,
2013-01-29 22:00:00,43.1,43.1,30.56,SE,139,0.0,0.0,100,0.00,,,0.18,Wunderground v.1.15,2013-01-30 06:00:00,
2013-01-29 22:05:00,43.1,43.1,30.56,SE,139,0.0,0.0,100,0.00,,,0.18,Wunderground v.1.15,2013-01-30 06:05:00,
2013-01-29 22:15:00,43.1,43.1,30.56,SE,139,0.0,0.0,100,0.00,,,0.18,Wunderground v.1.15,2013-01-30 06:15:00,
2013-01-29 22:20:00,43.1,43.1,30.56,SE,139,0.0,0.0,100,0.00,,,0.18,Wunderground v.1.15,2013-01-30 06:20:00,
2013-01-29 22:25:00,43.2,43.2,30.56,SE,139,0.0,0.0,100,0.00,,,0.18,Wunderground v.1.15,2013-01-30 06:25:00,
2013-01-29 22:30:00,43.2,43.2,30.56,SE,139,0.0,0.0,100,0.00,,,0.18,Wunderground v.1.15,2013-01-30 06:30:00,
2013-01-29 22:35:00,43.2,43.2,30.56,SE,139,0.0,0.0,100,0.00,,,0.18,Wunderground v.1.15,2013-01-30 06:35:00,
2013-01-29 22:45:00,43.1,43.1,30.56,SE,139,0.0,0.0,100,0.00,,,0.18,Wunderground v.1.15,2013-01-30 06:45:00,
2013-01-29 22:50:00,43.1,43.1,30.56,SE,139,0.0,0.0,100,0.00,,,0.18,Wunderground v.1.15,2013-01-30 06:50:00,
2013-01-29 22:55:00,42.9,42.9,30.56,SE,139,0.0,0.0,100,0.00,,,0.18,Wunderground v.1.15,2013-01-30 06:55:00,
2013-01-29 23:00:00,42.8,42.8,30.56,SE,139,0.0,0.0,100,0.00,,,0.18,Wunderground v.1.15,2013-01-30 07:00:00,
2013-01-29 23:10:00,42.3,42.3,30.56,SE,139,0.0,0.0,100,0.00,,,0.18,Wunderground v.1.15,2013-01-30 07:10:00,
2013-01-29 23:15:00,42.1,42.1,30.56,SE,139,0.0,0.0,100,0.00,,,0.18,Wunderground v.1.15,2013-01-30 07:15:00,
2013-01-29 23:20:00,41.9,41.9,30.56,SE,139,0.0,0.0,100,0.00,,,0.18,Wunderground v.1.15,2013-01-30 07:20:00,
2013-01-29 23:25:00,41.6,41.6,30.56,SE,139,0.0,0.0,100,0.00,,,0.18,Wunderground v.1.15,2013-01-30 07:25:00,
2013-01-29 23:30:00,41.4,41.4,30.56,SE,139,0.0,0.0,100,0.00,,,0.18,Wunderground v.1.15,2013-01-30 07:30:00,
2013-01-29 23:35:00,41.3,41.3,30.57,SE,139,0.0,0.0,100,0.00,,,0.18,Wunderground v.1.15,2013-01-30 07:35:00,
2013-01-29 23:45:00,41.2,41.2,30.57,SE,139,0.0,0.0,100,0.00,,,0.18,Wunderground v.1.15,2013-01-30 07:45:00,
2013-01-29 23:50:00,41.2,41.2,30.56,SE,139,0.0,0.0,100,0.00,,,0.18,Wunderground v.1.15,2013-01-30 07:50:00,
2013-01-29 23:55:00,41.3,41.3,30.57,SE,139,0.0,0.0,100,0.00,,,0.18,Wunderground v.1.15,2013-01-30 07:55:00,